Regional Weather Roundup
Issued by NWS

Home | Current Version | Previous Version | Text Only | Print | Product List | Glossary On
Versions: 1 2 3 4 5 6 7 8 9 10 11 12 13 14 15 16 17 18 19 20 21 22 23 24 25 26 27 28 29 30 31 32 33 34 35 36 37 38 39 40 41 42 43 44 45 46 47 48 49 50
000
ASUS43 KMKX 310400
RWRWI

WISCONSIN REGIONAL WEATHER ROUNDUP
NATIONAL WEATHER SERVICE MILWAUKEE/SULLIVAN WI
1100 PM CDT SAT AUG 30 2014

NOTE: "FAIR" INDICATES FEW OR NO CLOUDS BELOW 12,000 FEET WITH NO
SIGNIFICANT WEATHER AND/OR OBSTRUCTIONS TO VISIBILITY.

WIZ001-002-006>008-014>016-023>028-310500-
NORTHWEST WISCONSIN

CITY           SKY/WX    TMP DP  RH WIND       PRES   REMARKS
SUPERIOR ARPT  CLOUDY    62  59  91 E3        29.91S
ASHLAND        CLEAR     54  53  97 CALM      29.94R FOG
HAYWARD        CLOUDY    60  57  89 E5        29.93S
SIREN          MOCLDY    62  59  91 SE3       29.91R
RICE LAKE      CLEAR     59  57  94 CALM      29.93R
LADYSMITH      CLEAR     58  56  95 NE5       29.94R
EAU CLAIRE     FOG       59  59 100 CALM      29.90S VSB 1/2
MENOMONIE      CLEAR     61  60  97 CALM      29.90S
NEW RICHMOND   CLOUDY    61  60  98 E3        29.90S
OSCEOLA        CLOUDY    64  64  97 CALM      29.92R
$$

WIZ003>005-009-010-017-018-310500-
NORTH CENTRAL WISCONSIN

CITY           SKY/WX    TMP DP  RH WIND       PRES   REMARKS
WOODRUFF       MOCLDY    57  55  92 CALM      29.93S
RHINELANDER    CLOUDY    58  56  93 CALM      29.94R
EAGLE RIVER    CLOUDY    55  55 100 CALM      29.93R
LAND O LAKES   CLOUDY    57  56  95 N3        29.94S
PHILLIPS       CLOUDY    59  56  91 NE5       29.93R
TOMAHAWK       CLOUDY    58  55  89 CALM      29.93S
MEDFORD        CLOUDY    58  56  94 N5        29.93R
MERRILL        MOCLDY    59  57  94 NE3       29.92R
$$

WIZ029-030-035-036-043>047-310500-
CENTRAL WISCONSIN

CITY           SKY/WX    TMP DP  RH WIND       PRES   REMARKS
WAUSAU         CLOUDY    63  58  83 N3        29.90R
MOSINEE        CLOUDY    63  61  94 CALM      29.92R
MARSHFIELD     CLOUDY    65  60  84 NE3       29.91R
STEVENS POINT  CLOUDY    63  60  90 CALM      29.91R
WAUPACA        PTCLDY    66  64  91 CALM      29.91R
WAUTOMA        NOT AVBL
WISC RAPIDS    CLOUDY    66  62  87 N3        29.92S
CAMP DOUGLAS   NOT AVBL
$$

WIZ011>013-019>022-031-037>040-048>050-310500-
NORTHEAST WISCONSIN

CITY           SKY/WX    TMP DP  RH WIND       PRES   REMARKS
ANTIGO         CLOUDY    59  57  93 N6        29.92S
STURGEON BAY   CLOUDY    63  57  82 NW9       29.89R
GREEN BAY      CLOUDY    66  63  90 N6        29.89R
MANITOWOC      NOT AVBL
APPLETON       MOCLDY    64  63  94 N5        29.89S
CLINTONVILLE   CLOUDY    64  61  88 N5        29.89S
OSHKOSH        MOCLDY    67  64  90 N6        29.89R
$$

WIZ032>034-041-042-053>061-310500-
SOUTHWEST WISCONSIN

CITY           SKY/WX    TMP DP  RH WIND       PRES   REMARKS
LA CROSSE      PTCLDY    67  63  87 SE3       29.90R
SPARTA         CLOUDY    64  62  91 CALM      29.91R
VIROQUA        FAIR      64  64 100 CALM      29.92R
BOSCOBEL       CLOUDY    70  67  90 W3        29.90R
PRAIRIE DU CHI CLEAR     68  65  90 E3        29.89R
PLATTEVILLE    FAIR      68  65  92 CALM      29.92R
$$

WIZ056-057-062-063-064-067-068-310500-
SOUTH CENTRAL WISCONSIN

CITY           SKY/WX    TMP DP  RH WIND       PRES   REMARKS
BARABOO/DELLS  PTCLDY    67  64  87 CALM      29.91R
LONE ROCK      NOT AVBL
WATERTOWN      PTCLDY    66  66 100 CALM      29.89R
MADISON        MOCLDY    68  65  90 NW6       29.90R
MIDDLETON      MOCLDY    66  66  98 CALM      29.90R
MONROE         CLEAR     70  64  83 SW7       29.90S
JANESVILLE     CLEAR     70  64  83 CALM      29.90R
$$

WIZ051-052-058>065-066-070>072-310500-
SOUTHEAST WISCONSIN

CITY           SKY/WX    TMP DP  RH WIND       PRES   REMARKS
MILWAUKEE      PTCLDY    72  66  81 SW6       29.89R
WAUKESHA       CLEAR     66  64  94 SW6       29.90S
MILWAUKEE/TIMM CLEAR     66  64  94 CALM      29.89R
RACINE         CLEAR     71  66  84 SW6       29.90S
BURLINGTON     CLEAR     65  64  97 SW3       29.90S
KENOSHA        CLEAR     68  66  93 SW7       29.90S
FOND DU LAC    CLEAR     68  64  87 N3        29.90R
SHEBOYGAN      CLEAR     66  64  93 CALM      29.88S
WEST BEND      PTCLDY    66  63  88 CALM      29.89R
JUNEAU         MOCLDY    67  66  96 CALM      29.90R
$$

LSZ147-162-310500-
LAKE SUPERIOR

STATION/POSITION TIME  TEMP    WIND        PRES    WAVE
                       AIR SEA DIR/SP/G            HT/PER
                 (UTC) (F)     (DEG/KT/KT) (MB)    (FT/S)
W MID LAKE BUOY  0250   58 58  290/  2/  4 1012.8F   1
DEVILS ISLAND    0300   61     190/  2/  2 1013.1F
PORT WING        0300   61      80/  3/  4 1013.2S
SAXON HARBOR     0300   60        CALM     1013.2F
$$

LMZ867-665-643>646-310500-
LAKE MICHIGAN

STATION/POSITION TIME  TEMP    WIND        PRES    WAVE
                       AIR SEA DIR/SP/G            HT/PER
                 (UTC) (F)     (DEG/KT/KT) (MB)    (FT/S)
N MID LAKE BUOY  0250   64 65  300/ 16/ 17 1009.8R   3/ 6
NORTHPORT PIER   0300   64     310/ 12/ 15 1011.2R
SISTER BAY       0311   64     320/ 16/ 18   N/A
KEWAUNEE LAKESHO 0300   67     340/  8/ 11 1010.7R
SHEBOYGAN LAKESH 0300   71 51  300/  4/  5 1011.6R
ATWATER BUOY     0300   69     170/  2/  2 1012.8R
MILWAUKEE LAKESH 0300   71     140/  1/  2   N/A
S MID LAKE BUOY  0250   71 69  250/  6/  8 1011.5R   2/ 4
KENOSHA   LAKESH 0300   76     240/  4/ 10 1011.9R
$$

TC  - TEMPERATURE IN CELSIUS
VSB - VISIBILITY IN STATUTE MILES
WCI - WIND CHILL INDEX
HX  - HEAT INDEX




USA.gov is the U.S. government's official web portal to all federal, state and local government web resources and services.